Regional Weather Roundup
Issued by NWS

Home | Current Version | Previous Version | Text Only | Print | Product List | Glossary Off
Versions: 1 2 3 4 5 6 7 8 9 10 11 12 13 14 15 16 17 18 19 20 21 22 23 24 25 26 27 28 29 30 31 32 33 34 35 36 37 38 39 40 41 42 43 44 45 46 47 48 49 50

000
ASUS43 KLMK 182010
RWRKY
KENTUCKY REGIONAL WEATHER ROUNDUP
NATIONAL WEATHER SERVICE LOUISVILLE KY
300 PM EST THU JAN 18 2018

NOTE "FAIR" INDICATES FEW OR NO CLOUDS BELOW 12,000 FEET
WITH NO SIGNIFICANT WEATHER AND/OR OBSTRUCTIONS TO VISIBILITY.

KYZ001>023-026-027-061>063-070>075-182100-
WESTERN AND SOUTH CENTRAL KENTUCKY

CITY           SKY/WX    TMP DP  RH WIND       PRES   REMARKS
PADUCAH        FAIR      30  12  47 S8        30.39F WCI  22
HENDERSON      FAIR      29  16  58 S13       30.35F WCI  19
OWENSBORO      FAIR      32  17  54 SW12      30.37F WCI  23
HOPKINSVILLE   FAIR      30  14  51 SW10      30.39F WCI  21
BOWLING GREEN  FAIR      27  14  58 SW10      30.42F WCI  17
GLASGOW        FAIR      31  13  46 SW9       30.39F WCI  23
$$

KYZ024-025-028>034-038-045-046-053-182100-
NORTH CENTRAL KENTUCKY

CITY           SKY/WX    TMP DP  RH WIND       PRES   REMARKS
LOUISVILLE/SDF FAIR      32  13  45 SW13      30.32F WCI  22
LOUISVILLE/LOU FAIR      30  13  49 SW12      30.33F WCI  20
FORT KNOX      FAIR      29  14  53 S8        30.31F WCI  21
$$

KYZ035>037-039>044-047>052-055>060-089>105-182100-
NORTHEAST KENTUCKY

CITY           SKY/WX    TMP DP  RH WIND       PRES   REMARKS
LEXINGTON      FAIR      27  12  53 SW15      30.31F WCI  15
COVINGTON      FAIR      30  15  53 SW12G21   30.23F WCI  20
FRANKFORT      FAIR      28  11  48 SW14      30.30F WCI  17
$$

KYZ054-064>069-076>088-106>120-182100-
SOUTHEAST KENTUCKY

CITY           SKY/WX    TMP DP  RH WIND       PRES   REMARKS
JACKSON        FAIR      30  12  47 CALM      30.30F
LONDON         FAIR      27  13  55 VRB7      30.35F WCI  19
SOMERSET       FAIR      28  14  54 W10       30.40F WCI  19
MIDDLESBORO    FAIR      31  15  52 S5        30.38F WCI  26
MONTICELLO     FAIR      30  16  56 W15       30.40F WCI  19
$$





USA.gov is the U.S. government's official web portal to all federal, state and local government web resources and services.